User: anonymous   Login
Location: Chenango Forks
(42.2242°N, 75.8278°W)
Time: 13:32:08
(UTC-04:00)
Language:

Okean 3 Rocket - Orbit

View from above orbital plane
View from above orbital plane
View from above satellite
View from above satellite

Ground track
Ground track

The orbit data is extracted from the following two-line orbital elements,

1 21398U 91039B   15088.08598409  .00000636  00000-0  81951-4 0  9993
2 21398 082.5204 261.1002 0020650 324.1482 175.0615 14.79415892283979
Epoch (UTC): 29 March 2015 02:03:49
Eccentricity: 0.0020650
inclination: 82.5204°
perigee height: 616 km
apogee height: 645 km
right ascension of ascending node: 261.1002°
argument of perigee: 324.1482°
revolutions per day: 14.79415892
mean anomaly at epoch: 175.0615°
orbit number at epoch: 28397

The dashed part of the orbit path shows where the satellite is in the earth's shadow,  

DLR